Location: Augirein
(42.9320°N, 0.9181°E)
Time: 18:24:27
(UTC+00:00)

Cosmos 2221 - Pass Details

Date: 20 June 2021
Orbit: 591 x 616 km, 82.5° (Epoch: 30 July)

Event Time Altitude Azimuth Distance (km) Brightness Sun altitude
Rises 00:20:55 0° 4° (N) 2,859 7.4 -23.4°
Reaches altitude 10° 00:23:30 10° 18° (NNE) 1,947 6.2 -23.4°
Maximum altitude 00:27:01 24° 73° (ENE) 1,245 4.3 -23.3°
Enters shadow 00:28:24 21° 102° (ESE) 1,372 4.3 -23.3°
